Chicago Executive, IL

9:14 PM CST on December 09, 2019 (GMT -0600)
Chicago Executive

Weather History for KPWK - October, 2019

Change the Weather History Date:

Wednesday, October 9, 2019

  Actual Average Record
Temperature  
Mean Temperature 59 °F 55 °F  
Max Temperature 72 °F 65 °F 86 °F (2018)
Min Temperature 46 °F 45 °F 30 °F (2000)
Degree Days  
Heating Degree Days 6 11  
Month to date heating degree days 47 87  
Since 1 July heating degree days 54 199  
Cooling Degree Days 0 1  
Month to date cooling degree days 13 9  
Year to date cooling degree days 996 787  
Growing Degree Days 9 (Base 50)    
Moisture  
Dew Point 46 °F    
Average Humidity 64    
Maximum Humidity 90    
Minimum Humidity 35    
Precipitation  
Precipitation 0.00 in 0.09 in 0.40 in (2009)
Month to date precipitation 1.48 0.93  
Year to date precipitation 38.17 26.62  
Sea Level Pressure  
Sea Level Pressure 30.15 in    
Wind  
Wind Speed 3 mph ()    
Max Wind Speed 15 mph    
Max Gust Speed 20 mph    
Visibility 10.0 miles    
Events      
T = Trace of Precipitation, MM = Missing Value Source: Averaged Metar Reports

Daily Weather History Graph

Daily Weather History Graph

Search for Another Location

Airport or City:

Astronomy

Oct. 09, 2019 Rise Set
Actual Time 6:57 AM CDT 6:19 PM CDT
Civil Twilight 6:29 AM CDT 6:47 PM CDT
Nautical Twilight 5:56 AM CDT 7:20 PM CDT
Astronomical Twilight 5:24 AM CDT 7:52 PM CDT
Moon 4:57 PM CDT (10/9) 2:37 AM CDT (10/9)
Length of Visible Light 12h 18m
Length of Day
11h 22m
Waxing Gibbous, 85% of the Moon is Illuminated
Oct 9
Waxing Gibbous
Oct 13
Full
Oct 21
Last Quarter
Oct 27
New
Nov 4
First Quarter

Hourly Weather History & Observations

Time (CDT) Temp. Dew Point Humidity Pressure Visibility Wind Dir Wind Speed Gust Speed Precip Events Conditions
12:52 AM 51.1 °F 46.9 °F 86% 30.15 in 10.0 mi Calm Calm - N/A   Clear
1:52 AM 48.9 °F 46.0 °F 90% 30.16 in 10.0 mi Calm Calm - N/A   Clear
2:52 AM 48.9 °F 45.0 °F 86% 30.16 in 10.0 mi Calm Calm - N/A   Clear
3:52 AM 48.9 °F 45.0 °F 86% 30.16 in 10.0 mi Calm Calm - N/A   Clear
4:52 AM 48.0 °F 45.0 °F 89% 30.17 in 10.0 mi Calm Calm - N/A   Clear
5:52 AM 46.9 °F 44.1 °F 90% 30.18 in 10.0 mi Calm Calm - N/A   Clear
6:52 AM 46.9 °F 44.1 °F 90% 30.19 in 10.0 mi Calm Calm - N/A   Clear
7:52 AM 51.1 °F 46.0 °F 83% 30.20 in 10.0 mi Calm Calm - N/A   Clear
8:52 AM 57.0 °F 46.0 °F 67% 30.21 in 10.0 mi SSE 4.6 mph - N/A   Clear
9:52 AM 63.0 °F 45.0 °F 52% 30.19 in 10.0 mi SSE 8.1 mph - N/A   Clear
10:52 AM 66.9 °F 43.0 °F 42% 30.19 in 10.0 mi South 13.8 mph - N/A   Clear
11:52 AM 70.0 °F 43.0 °F 38% 30.18 in 10.0 mi SSE 10.4 mph - N/A   Clear
12:52 PM 71.1 °F 43.0 °F 36% 30.17 in 10.0 mi South 8.1 mph - N/A   Clear
1:52 PM 71.1 °F 42.1 °F 35% 30.14 in 10.0 mi ESE 8.1 mph 17.3 mph N/A   Clear
2:52 PM 70.0 °F 41.0 °F 35% 30.12 in 10.0 mi ESE 13.8 mph 19.6 mph N/A   Clear
3:52 PM 68.0 °F 46.0 °F 45% 30.11 in 10.0 mi East 10.4 mph 17.3 mph N/A   Clear
4:52 PM 66.9 °F 46.0 °F 47% 30.10 in 10.0 mi East 8.1 mph - N/A   Clear
5:52 PM 64.0 °F 46.0 °F 52% 30.12 in 10.0 mi Calm Calm - N/A   Clear
6:52 PM 60.1 °F 48.0 °F 64% 30.11 in 10.0 mi ENE 3.5 mph - N/A   Clear
7:52 PM 59.0 °F 48.9 °F 69% 30.12 in 10.0 mi East 3.5 mph - N/A   Clear
9:52 PM 60.1 °F 50.0 °F 69% 30.11 in 10.0 mi East 4.6 mph - N/A   Clear
10:52 PM 62.1 °F 48.9 °F 62% 30.11 in 10.0 mi ESE 6.9 mph - N/A   Clear
11:52 PM 62.1 °F 48.9 °F 62% 30.09 in 10.0 mi ESE 8.1 mph - N/A   Clear